Location: Moy Burn
(57.3833°N, 4.0667°W)
Time: 10:14:36
(UTC+00:00)

Terra - Pass Details

Date: 08 August 2020
Orbit: 701 x 703 km, 98.2° (Epoch: 19 September)

Event Time Altitude Azimuth Distance (km) Brightness Sun altitude
Exits shadow 22:01:00 13° 169° (S) 1,970 3.6 -11.2°
Maximum altitude 22:05:15 77° 255° (WSW) 730 1.9 -11.5°
Drops below altitude 10° 22:10:04 10° 342° (NNW) 2,186 5.7 -11.9°
Sets 22:12:20 0° 344° (NNW) 3,109 6.8 -12.0°
